Volver al catálogo

STARLINK-36077

ActivoComunicacionesVLEO
NORAD 66903·PAYLOAD·🇺🇸 United States

Lanzado Dec 4, 2025 desde Vandenberg Space Force Base

Loading…

Próximos Pases (próximas 24 horas)

TLE

ActualizadoSource: CelesTrak SupGP

Época: Sep 14, 2026, 23:17 UTC

1 66903C 25283AB  26257.97062500 -.00002244  00000+0 -66291-4 0  2573
2 66903  53.1575 221.6182 0001337  93.7605 179.9052 15.34400039    11

Sigue STARLINK-36077 en tiempo real con AllMySat

Download on the App Store